Location: *
(44.8936°N, 0.1547°W)
Time: 00:42:34
(UTC+00:00)

Daily predictions for brighter satellites

Satellite Brightness Start Highest point End
(mag) Time Altitude Azimuth Time Altitude Azimuth Time Altitude Azimuth
USA 234 4.4 02:17:48 10° E 02:22:13 37° ENE 02:22:13 37° ENE
ATLAS 3B R/B 4.4 02:30:07 22° N 02:32:05 25° NNE 02:37:35 10° E
Cosmos 2278 Rocket 4.4 02:33:22 16° NNE 02:35:57 21° NE 02:40:11 10° E
COSMOS 2455 4.3 02:40:32 32° NE 02:40:32 32° NE 02:43:44 10° NE
Cosmos 2333 Rocket 3.9 02:44:00 29° ENE 02:44:00 29° ENE 02:47:33 10° NE
CENTAUR R/B 4.3 02:39:09 21° NNW 02:43:40 36° NE 02:51:23 10° E
ATLAS 2AS CENTAUR R/B 4.0 02:54:25 34° SE 02:56:26 40° ESE 03:03:46 10° NE
IDEFIX/ARIANE 42P 4.4 02:53:17 10° NE 02:57:40 26° E 02:58:16 26° ESE
SL-16 R/B 4.3 03:03:15 17° N 03:03:15 17° N 03:04:44 10° N
USA 238 DEB 4.0 03:01:10 68° ENE 03:01:10 68° ENE 03:08:10 10° SE
USA 238 4.0 03:01:12 68° ENE 03:01:12 68° ENE 03:08:15 10° SE
Cosmos 2219 Rocket 3.2 03:08:19 43° ENE 03:08:19 43° ENE 03:12:28 10° NE
Cosmos 2237 Rocket 4.1 03:14:23 17° SE 03:17:20 25° ESE 03:21:54 10° NE
NOSS 3-2 (A) 4.0 03:23:04 47° NNW 03:25:43 83° NE 03:34:09 10° SE
Cosmos 2322 Rocket 4.2 03:32:59 17° NNW 03:32:59 17° NNW 03:34:45 10° N
Cosmos 2181 Rocket 4.2 03:24:49 10° N 03:31:11 69° E 03:37:25 10° SSE
USA 267 3.1 03:26:15 10° NE 03:32:47 76° NW 03:32:58 75° NW
COSMOS 2428 2.8 03:33:55 69° NE 03:33:55 69° NE 03:38:56 10° NNE
Cosmos 2360 Rocket 3.6 03:41:57 25° NNW 03:41:57 25° NNW 03:44:55 10° N
Cosmos 1470 4.2 03:44:45 10° N 03:48:25 37° ENE 03:52:02 10° SE
NOSS 3-2 (C) 4.1 03:44:16 22° NW 03:49:41 80° NE 03:58:07 10° SE
ADEOS 3.6 03:45:45 10° NNE 03:51:00 75° ESE 03:52:06 55° S
ADEOS II 4.1 04:01:48 10° NNW 04:02:58 15° NNW 04:02:58 15° NNW
USA 234 3.1 04:00:05 10° SE 04:06:39 79° SW 04:09:35 36° WNW
NOSS 3-4 (A) 3.7 04:03:38 30° SSW 04:06:40 64° ESE 04:12:55 10° NE
NOSS 3-4 (C) 3.7 04:03:38 29° SSW 04:06:46 63° ESE 04:13:01 10° NE
NOSS 2-2 (D) 4.4 04:09:57 34° N 04:09:57 34° N 04:12:51 10° NNE
SL-16 R/B 4.3 04:05:56 10° SSE 04:10:30 26° ESE 04:15:05 10° NE
Centaur D AC-28 4.4 04:12:01 10° SSE 04:12:34 10° SSE 04:13:11 10° SE
Cosmos 1140 Rocket 4.3 04:12:49 10° S 04:17:49 50° ESE 04:22:49 10° NNE
Cosmos 389 Rocket 3.2 04:17:48 32° SSE 04:19:02 51° E 04:22:24 10° NNE
H-2A R/B 2.4 04:16:05 10° NNE 04:20:16 90° SW 04:21:56 37° SSW
Cosmos 614 Rocket 4.0 04:16:45 20° SSW 04:20:22 78° ESE 04:25:36 10° NNE
Cosmos 2278 Rocket 2.0 04:15:25 12° NNW 04:20:41 76° WSW 04:26:20 10° SSE
PAYLOAD A 4.0 04:18:48 10° NNE 04:23:39 79° ESE 04:28:40 10° S
Celestis-02/Orion 38 4.5 04:18:30 10° SSE 04:23:40 82° WSW 04:29:00 10° NNW
ATLAS 3B R/B 2.7 04:17:26 12° NW 04:23:44 83° NE 04:30:37 10° SE
COSMOS 2455 3.8 04:23:42 29° NW 04:24:08 29° NW 04:29:23 10° NNE
Cosmos 2333 Rocket 2.6 04:26:03 39° WNW 04:26:39 40° NW 04:32:01 10° NNE
Cosmos 2184 Rocket 3.9 04:27:15 10° SSW 04:33:27 79° W 04:39:47 10° N
CENTAUR R/B 3.1 04:27:09 10° NW 04:35:13 80° SW 04:43:55 10° SSE
COSMO-SKYMED 1 4.2 04:31:43 10° SE 04:35:40 35° ENE 04:39:38 10° N
IDEFIX/ARIANE 42P 2.9 04:32:28 10° N 04:37:25 43° WNW 04:39:03 33° WSW
Aureole 1 Rocket 4.4 04:39:29 31° WNW 04:40:10 32° WNW 04:44:37 10° N
Meteor 1-21 4.4 04:39:09 23° SW 04:42:21 47° WNW 04:47:48 10° N
Nadezhda 3 Rocket 4.1 04:36:57 10° N 04:43:22 80° E 04:49:42 10° S
COSMOS 2441 4.4 04:40:19 10° N 04:45:09 57° WNW 04:49:55 10° SSW
ATLAS 2AS CENTAUR R/B 3.2 04:41:55 23° WSW 04:47:15 60° NW 04:55:12 10° NE
Cosmos 1726 Rocket 3.8 04:43:08 10° N 04:47:28 70° E 04:51:45 10° SSE
Cosmos 2228 3.1 04:43:12 10° N 04:47:29 75° E 04:51:43 10° SSE
NOSS 0 Rocket 4.0 04:43:39 21° SW 04:47:43 57° WNW 04:53:49 10° NNE
Cosmos 1025 Rocket 3.9 04:49:16 28° WNW 04:49:16 28° WNW 04:52:31 10° NNW
PSLV R/B 4.5 04:45:49 10° N 04:49:05 27° WNW 04:49:05 27° WNW
Cosmos 2219 Rocket 3.1 04:50:04 25° WNW 04:51:17 27° NW 04:56:02 10° N
PSLV R/B 4.4 04:48:03 10° NNE 04:51:43 54° E 04:55:19 10° S
CZ-4B R/B 2.7 04:47:45 10° NNE 04:51:49 84° W 04:55:38 10° SSW
Cosmos 1023 Rocket 4.4 04:46:49 10° SSW 04:52:00 80° WNW 04:57:10 10° NNE
Cosmos 921 Rocket 4.4 04:57:59 20° SW 04:57:59 20° SW 04:59:52 10° SSW
ALOS 4.2 04:53:20 10° NNE 04:57:32 32° E 05:01:43 10° SSE
Cosmos 1953 2.3 04:53:55 10° NNW 04:57:53 57° W 05:01:48 10° S
Meteor PRIRODA 3.7 04:54:48 10° NNE 04:58:35 80° ESE 05:02:17 10° S
Okean O Rocket 3.5 04:56:36 10° NNE 05:00:35 33° E 05:04:32 10° SSE
ERBS 3.4 04:59:56 26° NW 05:00:36 29° NNW 05:03:36 10° NNE
Cosmos 2237 Rocket 2.4 04:56:19 14° SW 05:01:02 52° WNW 05:06:37 10° NNE
Cosmos 676 Rocket 3.9 05:00:15 10° SSW 05:05:32 80° WNW 05:10:49 10° NNE
Cosmos 2074 Rocket 4.3 04:59:44 10° SSW 05:05:39 44° WNW 05:11:35 10° N
In-Cosmos 22 4.2 05:00:41 10° S 05:06:01 82° E 05:11:31 10° NNE
Cosmos 1758 4.2 05:03:03 10° NNW 05:06:24 26° W 05:09:44 10° SW
Cosmos 2058 Rocket 3.3 05:02:13 10° N 05:06:39 74° E 05:11:04 10° SSE
Meteor 2-10 4.1 05:03:13 10° N 05:08:27 84° E 05:13:48 10° SSE
MSX 4.3 05:04:02 10° N 05:09:16 38° WNW 05:14:30 10° SW
Cosmos 1908 4.3 05:06:09 10° N 05:09:53 48° ENE 05:13:35 10° SSE
CZ-2C R/B 2.7 05:05:39 10° N 05:10:39 49° WNW 05:15:35 10° SW
Cosmos 44 3.9 05:10:36 19° WNW 05:12:38 28° WSW 05:16:19 10° S
Cosmos 1295 Rocket 4.4 05:07:39 10° S 05:13:51 83° W 05:20:01 10° N
COBE Rocket 4.0 05:09:01 10° SSE 05:14:02 86° WSW 05:19:14 10° NNW
USA 267 4.1 05:09:23 10° NE 05:15:15 37° NNW 05:20:19 14° WNW
Cosmos 1190 Rocket 4.4 05:10:33 10° SW 05:15:33 41° WNW 05:20:35 10° N
Cosmos 2369 Rocket 3.9 05:11:16 10° N 05:16:15 32° NE 05:21:12 10° ESE
Cosmos 407 Rocket 4.0 05:12:01 11° SW 05:16:27 36° WNW 05:21:10 10° N
Meteor 1-31 Rocket 3.2 05:13:17 10° N 05:16:51 39° WNW 05:20:23 10° SW
Helios 1A Rocket 3.7 05:13:38 10° NNE 05:17:45 56° E 05:21:49 10° S
COSMOS 2428 4.1 05:15:58 16° WNW 05:18:14 19° NW 05:22:16 10° N
Cosmos 1980 4.3 05:13:39 12° WSW 05:18:25 37° NW 05:23:40 10° NNE
Cosmos 44 Rocket 3.3 05:15:25 10° NNW 05:20:11 78° NE 05:24:51 10° SE
Cosmos 1707 3.7 05:18:51 10° SW 05:22:11 26° WNW 05:25:33 10° NNW
SKYMED 2 3.5 05:19:16 10° S 05:23:36 74° WSW 05:27:57 10° NNW
Cosmos 1470 4.2 05:21:38 10° NW 05:24:10 17° W 05:26:40 10° SW
CZ-4B R/B 3.9 05:19:35 10° NNE 05:24:49 56° ESE 05:30:00 10° S
RESURS DK-1 2.3 05:23:27 10° SW 05:27:33 66° WNW 05:31:42 10° NNE
Milstar 3 Cent rocket 4.5 05:30:02 10° S 05:30:22 10° S 05:30:41 10° S
MOS 1-B 4.3 05:25:44 10° NNE 05:31:34 76° WNW 05:37:21 10° SSW
Cosmos 1892 Rocket 3.7 05:27:34 10° SSW 05:31:52 49° WNW 05:36:10 10° N
Cosmos 1726 2.2 05:29:14 10° NNW 05:32:50 54° W 05:36:24 10° S
Cosmos 1484 Rocket 2.8 05:29:44 10° N 05:33:28 57° WNW 05:37:13 10° SSW
BREEZE-M DEB (TANK) 2.7 05:32:13 12° WNW 05:35:30 34° N 05:37:37 10° ENE
Meteor 1-4 Rocket 3.7 05:34:07 10° SW 05:36:56 22° WNW 05:39:44 10° NNW
SJ-12 3.9 05:35:42 10° N 05:39:46 67° WNW 05:43:50 10° SSW
GP-B 3.5 05:36:28 10° SSW 05:40:39 41° W 05:44:52 10° NNW
Cosmos 1850 Rocket 4.1 05:38:31 10° SSW 05:43:42 87° ESE 05:48:55 10° NNE
Cosmos 1674 2.6 05:42:12 10° SSW 05:45:51 58° W 05:49:32 10° N
Meteor 1-24 Rocket 4.0 05:40:42 10° S 05:46:25 82° E 05:52:24 10° NNE
Cosmos 1943 Rocket 2.8 05:44:27 10° NNW 05:50:06 62° ENE 05:55:43 10° SE
USA 234 4.5 05:45:26 10° S 05:50:18 22° WSW 05:55:12 10° WNW
FENGYUN 3A 3.7 05:47:47 10° NNE 05:53:15 82° WNW 05:58:42 10° SSW
SL-16 R/B 2.4 05:48:46 10° SW 05:54:16 51° WNW 05:59:49 10° NNE
NOSS 3-4 (A) 4.3 05:52:35 10° W 05:58:01 32° NW 06:03:48 10° NNE
NOSS 3-4 (C) 4.3 05:52:38 10° W 05:58:06 33° NW 06:03:54 10° NNE
